www.pogodaiklimat.ru

Погода и климат >> Архив погоды >> Финляндия >> Круунупюу


ПОГОДА в Круунупюу

  • Прогноз погоды в Круунупюу
  • Монитор погоды в Круунупюу

АРХИВ ПОГОДЫ в Круунупюу

Время (UTC), дата Ветер
(напр.,м/с)
 
Видим.   Явления Облачность Т
(С)
Тd
(С)
f
(%)
Тe
(С)
Тes
(С)
Комфортность P
(гПа)
Po
(гПа)
Тmin
(С)
Tmax
(С)
R
(мм)
R24
(мм)
S
(см)
16 9.06 ЮЗ 8 >70 км 5/0 1500 м
[]
+18.4 +7.0 47 +18 +18 1012.7 1009.5
17 9.06 Ю 8 >70 км 5/0 1000 м
[]
+17.4 +8.0 54 +16 +17 1012.6 1009.4
18 9.06 Ю 7 50 км ясно +17.6 +7.5 52 +17 +17 1012.4 1009.2 +16.2 +20.8
19 9.06 Ю 9 >70 км ясно +16.9 +7.0 52 +15 +15 1012.2 1009.1
20 9.06 Ю 6 >70 км ясно +15.0 +7.5 61 +13 +13 1012.2 1009.0
21 9.06 Ю 5 50 км 1/1 1000 м
[]
+14.5 +8.2 66 +13 +13 1012.1 1008.9
22 9.06 Ю 6 65 км ясно +13.5 +8.3 71 +11 +11 1011.8 1008.6
23 9.06 Ю 6 60 км 3/0 2000 м
[]
+13.6 +8.7 72 +11 +11 1011.5 1008.3
00 10.06 Ю 6 50 км 1/1 1000 м
[]
+13.0 +9.0 77 +11 +11 1011.0 1007.8
01 10.06 Ю 6 60 км ясно +12.8 +9.2 79 +10 +10 1010.8 1007.6
02 10.06 Ю 7 60 км 10/0 2000 м
[]
+13.4 +9.6 78 +11 +11 1010.7 1007.5
03 10.06 Ю 8 50 км 1/1 1000 м
[]
+13.8 +9.5 75 +11 +11 1010.6 1007.4
04 10.06 Ю 7 65 км 3/0 300 м
[]
+13.9 +9.4 74 +12 +12 1010.7 1007.5
05 10.06 Ю 8 65 км 5/0 600 м
[]
+14.9 +9.7 71 +13 +13 1011.0 1007.8
06 10.06 Ю 8 50 км 8/8 600 м
[]
+14.7 +9.6 71 +13 +13 1011.1 1007.9 +12.6 +17.7
07 10.06 Ю 8 55 км 8/0 600 м
[]
+16.7 +10.1 65 +15 +16 1011.2 1008.1
08 10.06 Ю 9 60 км 8/0 600 м
[]
+16.1 +9.4 64 +14 +15 1011.5 1008.4
09 10.06 Ю 8 50 км 3/3 600 м
[]
+17.0 +9.4 61 +16 +17 1011.7 1008.6
10 10.06 Ю 8 60 км 9/0 600 м
[]
+17.4 +9.1 58 +16 +18 1011.8 1008.7
11 10.06 Ю 8 55 км 9/0 1000 м
[]
+18.9 +9.7 55 +19 +20 1012.1 1008.9
12 10.06 ЮЗ 7 50 км 9/9 1000 м
[]
+18.7 +9.8 56 +19 +19 1012.5 1009.3
13 10.06 ЮЗ 8 65 км 4/3 1000 м
[]
+18.9 +9.1 53 +19 +20 1012.4 1009.3
14 10.06 ЮЗ 7 >70 км 9/9 2000 м
[]
+18.7 +10.1 57 +19 +19 1012.8 1009.6
15 10.06 ЮЗ 8 50 км 6/6 1500 м
[]
+19.7 +8.8 49 +20 +20 1012.9 1009.8
16 10.06 ЮЗ 6 65 км 3/0 1500 м
[]
+18.9 +7.4 47 +19 +20 1013.4 1010.3
17 10.06 ЮЗ 5 >70 км ясно +18.3 +7.2 48 +18 +19 1013.8 1010.6
18 10.06 ЮЗ 5 50 км ясно +16.5 +7.8 56 +16 +16 1014.5 1011.3 +14.7 +19.7
19 10.06 ЮЗ 4 >70 км 9/0 1500 м
[]
+15.9 +8.1 60 +15 +15 1015.4 1012.2
20 10.06 З 3 >70 км 9/0 1500 м
[]
+15.0 +7.9 62 +14 +14 1016.2 1013.0
21 10.06 З 3 50 км 9/9 1500 м
[]
+13.3 +7.4 67 +12 +12 1016.6 1013.4
22 10.06 СЗ 3 >70 км 1/0 1500 м
[]
+11.1 +6.7 74 +9 +9 1017.7 1014.4
23 10.06 СЗ 3 >70 км ясно +9.1 +5.8 80 +7 +7 1018.4 1015.2
00 11.06 С 3 50 км ясно +8.6 +6.8 88 +6 +6 1019.6 1016.3
01 11.06 С 4 >70 км 8/6 1500 м
[]
+8.3 +5.4 82 +5 +5 1020.6 1017.3
02 11.06 С 1 >70 км 9/0 1500 м
[]
+8.3 +5.4 82 +8 +8 1021.4 1018.1
03 11.06 С 4 50 км 10/10 1500 м
[]
+8.9 +4.0 71 +6 +6 1022.1 1018.8
04 11.06 С 5 65 км 10/0 1500 м
[]
+8.6 +3.4 70 +5 +6 1022.7 1019.5
05 11.06 С 5 >70 км 10/0 1500 м
[]
+8.9 +2.6 65 +6 +7 1024.0 1020.7
06 11.06 С 5 50 км 9/9 1500 м
[]
+9.1 +2.9 65 +6 +6 1025.1 1021.8 +8.3 +16.5
07 11.06 С 6 >70 км 9/0 1500 м
[]
+9.2 +2.7 64 +6 +8 1025.5 1022.2
08 11.06 С 7 >70 км 1/0 1500 м
[]
+9.9 +0.5 52 +7 +9 1025.8 1022.5
09 11.06 С 7 50 км 8/8 1500 м
[]
+9.3 -0.2 51 +6 +6 1026.9 1023.6
10 11.06 С 7 >70 км 4/0 2000 м
[]
+9.3 -1.5 47 +6 +9 1027.1 1023.8
11 11.06 С 8 65 км ясно +9.3 -1.3 47 +6 +8 1028.0 1024.7
12 11.06 С 7 50 км ясно +9.7 -0.4 49 +6 +10 1028.1 1024.8
13 11.06 С 7 >70 км ясно +8.9 -0.9 50 +5 +8 1028.6 1025.3
14 11.06 С 7 >70 км ясно +9.9 -1.0 47 +6 +8 1028.9 1025.6
15 11.06 С 7 50 км ясно +9.7 -2.1 44 +6 +8 1029.3 1026.0
16 11.06 С 6 >70 км ясно +9.4 -1.8 45 +6 +8 1029.2 1025.9
17 11.06 С 7 >70 км ясно +8.4 -1.7 49 +5 +5 1029.3 1026.0
18 11.06 С 6 50 км ясно +7.8 -1.6 51 +4 +4 1029.3 1026.0 +7.8 +10.7
19 11.06 С 6 >70 км ясно +7.1 -0.8 57 +3 +3 1029.4 1026.1
20 11.06 С 4 >70 км ясно +6.0 -0.4 63 +3 +3 1030.0 1026.7
21 11.06 С 2 50 км ясно +4.2 -0.1 74 +2 +2 1030.2 1026.9
22 11.06 С 2 >70 км ясно +2.4 -0.6 81 -1 -1 1030.6 1027.2
23 11.06 С 1 >70 км ясно +1.4 -0.7 86 1030.5 1027.1
00 12.06 С 2 50 км ясно +1.5 -0.3 88 -2 -2 1030.9 1027.5
01 12.06 С 2 65 км ясно +0.3 -1.2 90 -3 -3 1031.1 1027.7
02 12.06 С 2 >70 км ясно +2.1 -0.3 84 -1 -1 1031.2 1027.8
03 12.06 С 2 50 км ясно +5.2 +0.1 70 +3 +4 1031.4 1028.1
04 12.06 С 3 65 км ясно +6.7 -0.1 62 +4 +6 1031.2 1027.9
05 12.06 СВ 4 >70 км ясно +8.4 -0.6 53 +6 +8 1031.6 1028.3
06 12.06 СВ 5 50 км ясно +10.0 -2.2 42 +7 +11 1031.6 1028.3 +0.1 +10.0
07 12.06 СВ 5 >70 км ясно +10.8 -2.6 39 +9 +13 1031.2 1028.0
08 12.06 С 5 65 км ясно +11.4 -3.2 36 +9 +15 1031.0 1027.7
09 12.06 СВ 5 50 км ясно +13.6 -2.8 32 +12 +18 1030.9 1027.6
10 12.06 СЗ 4 60 км ясно +12.5 +0.8 45 +11 +20 1030.4 1027.1
11 12.06 С 7 >70 км ясно +13.4 +1.3 44 +11 +15 1030.0 1026.8
12 12.06 С 7 50 км ясно +13.5 +1.6 44 +11 +15 1029.3 1026.0
13 12.06 С 7 >70 км ясно +13.6 +0.9 42 +12 +14 1028.8 1025.5
14 12.06 С 6 60 км 4/0
[]
+13.2 +1.0 43 +11 +14 1028.3 1025.0
15 12.06 С 6 50 км 3/0
[]
+13.7 +1.6 44 +12 +14 1027.9 1024.7
16 12.06 С 6 >70 км 9/0
[]
+13.8 +2.3 46 +12 +13 1027.3 1024.0
17 12.06 С 5 65 км 9/0
[]
+13.0 +2.8 50 +11 +12 1027.0 1023.8
18 12.06 С 3 50 км 4/0
[]
+12.3 +3.8 56 +11 +12 1027.0 1023.7 +9.7 +14.6
19 12.06 С 2 >70 км 9/0
[]
+11.9 +4.4 60 +11 +11 1026.8 1023.6
20 12.06 С 2 65 км 9/0
[]
+10.1 +4.7 69 +9 +9 1027.0 1023.7
21 12.06 СВ 2 50 км 9/9
[]
+9.2 +4.5 72 +8 +8 1026.9 1023.6
22 12.06 В 2 >70 км ясно +8.8 +2.9 66 +7 +7 1026.9 1023.6
23 12.06 В 2 >70 км 9/0
[]
+8.8 +2.5 65 +7 +7 1026.8 1023.5
00 13.06 В 2 50 км 9/9
[]
+8.5 +2.3 65 +7 +7 1026.5 1023.3
01 13.06 В 3 >70 км 9/0
[]
+8.0 +2.0 66 +6 +6 1026.4 1023.1
02 13.06 В 3 >70 км 9/3
[]
+8.7 +2.3 64 +6 +7 1025.9 1022.6
03 13.06 В 3 50 км 9/9
[]
+10.0 +2.6 60 +8 +8 1025.6 1022.4
04 13.06 В 3 65 км 9/1
[]
+10.6 +3.3 61 +9 +10 1025.2 1021.9
05 13.06 В 3 >70 км 9/0
[]
+11.3 +3.4 58 +10 +11 1024.9 1021.6
06 13.06 В 4 50 км 9/9
[]
+12.5 +3.1 53 +11 +11 1024.4 1021.1 +7.1 +12.5
07 13.06 В 6 >70 км 9/0
[]
+13.7 +3.2 49 +12 +14 1023.9 1020.6
08 13.06 В 6 65 км 10/0
[]
+14.1 +2.4 45 +12 +14 1023.6 1020.4
09 13.06 В 5 50 км 10/10 2000 м
[]
+14.5 +3.1 46 +13 +13 1023.6 1020.4
10 13.06 В 4 >70 км 10/0 2000 м
[]
+14.9 +3.1 45 +14 +18 1023.3 1020.1
11 13.06 В 6 >70 км 9/0
[]
+14.8 +3.0 45 +13 +16 1022.9 1019.7
12 13.06 В 5 50 км 10/10
[]
+14.7 +3.9 48 +13 +13 1022.5 1019.3
13 13.06 В 6 65 км 10/0
[]
+14.8 +3.4 46 +13 +15 1021.5 1018.3
14 13.06 В 4 >70 км 10/0
[]
+15.5 +4.2 47 +15 +17 1021.1 1017.9
15 13.06 В 5 50 км 10/1 1000 м
[]
+14.6 +3.7 48 +13 +15 1020.7 1017.5
16 13.06 В 3 >70 км 10/1 1000 м
[]
+14.0 +4.4 52 +13 +15 1020.3 1017.1
17 13.06 В 4 >70 км 10/0 1500 м
[]
+13.4 +4.4 54 +12 +13 1020.5 1017.3
18 13.06 В 4 50 км 10/10 1000 м
[]
+13.0 +4.8 57 +11 +11 1020.4 1017.2 +12.5 +15.7
19 13.06 В 3 65 км 10/0 1000 м
[]
+12.7 +5.1 60 +11 +12 1020.2 1017.0
20 13.06 В 3 >70 км 10/0 1000 м
[]
+12.5 +5.5 62 +11 +11 1020.5 1017.2
21 13.06 СВ 3 50 км 10/10 1000 м
[]
+12.3 +5.4 63 +11 +11 1020.2 1017.0
22 13.06 СВ 2 >70 км 10/0 1000 м
[]
+12.2 +5.5 64 +11 +11 1019.9 1016.7
23 13.06 В 2 >70 км 10/0 1000 м
[]
+11.9 +5.8 66 +11 +11 1019.4 1016.1
00 14.06 СВ 1 50 км 9/8 1000 м
[]
+11.2 +5.9 70 +11 +11 1018.8 1015.6
01 14.06 С 2 >70 км 10/9 1000 м
[]
+11.0 +6.1 72 +10 +10 1019.2 1016.0
02 14.06 С 3 65 км 10/0 1000 м
[]
+11.3 +6.1 70 +10 +10 1018.8 1015.5
03 14.06 СВ 3 50 км 10/10 1000 м
[]
+11.5 +6.3 70 +10 +10 1018.4 1015.2
04 14.06 В 2 >70 км 10/0 1000 м
[]
+12.2 +6.7 69 +11 +12 1018.2 1014.9
05 14.06 СВ 3 >70 км 9/9 1000 м
[]
+13.2 +7.0 66 +12 +12 1018.2 1015.0
06 14.06 В 3 50 км 9/9
[]
+14.7 +7.2 61 +14 +14 1018.2 1015.0 +10.2 +14.7
07 14.06 В 3 >70 км 9/9
[]
+16.2 +6.8 54 +16 +17 1018.0 1014.9
08 14.06 В 2 >70 км 9/9
[]
+16.7 +6.1 50 +17 +18 1017.9 1014.8
09 14.06 В 3 50 км 1/1
[]
+19.0 +5.3 41 +20 +29 1017.7 1014.5
10 14.06 ЮВ 4 65 км ясно +19.2 +4.6 38 +20 +28 1017.4 1014.3
11 14.06 В 3 65 км 8/0
[]
+20.5 +1.9 29 +21 +28 комфорт 1017.1 1013.9
12 14.06 СВ 2 50 км 9/1 1500 м
[]
+20.5 +6.0 39 +22 +28 комфорт 1016.6 1013.4
13 14.06 С 3 65 км 9/5 1000 м
[]
+20.2 +5.2 37 +21 +24 комфорт 1016.1 1012.9
14 14.06 С 4 >70 км 9/1 1000 м
[]
+19.4 +3.9 36 +20 +22 1015.9 1012.8
15 14.06 СЗ 3 50 км 10/10 1000 м
[]
+17.9 +3.5 38 +18 +18 1015.6 1012.4
16 14.06 СЗ 2 >70 км 10/0 1000 м
[]
+18.0 +4.3 40 +19 +19 1015.3 1012.1
17 14.06 З 1 >70 км 10/0 1500 м
[]
+17.9 +5.4 44 +19 +20 1014.8 1011.6
18 14.06 ЮЗ 2 50 км 10/10 1500 м
[]
+17.3 +7.2 51 +18 +18 1014.4 1011.2 +14.7 +21.3
19 14.06 Ю 4 60 км 10/1 1500 м
[]
+15.3 +11.1 76 +14 +14 1014.5 1011.3
20 14.06 З 2 40 км 9/9 200 м
[]
+14.2 +12.3 88 +14 +14 1014.9 1011.7
21 14.06 З 2 18 км слаб. дождь 10/4 100 м
[]
+12.9 +12.0 94 +12 +12 1014.8 1011.6
22 14.06 З 3 30 км слаб. дождь 10/0 2000 м
[]
+10.8 +8.7 87 +9 +9 1014.9 1011.7
23 14.06 З 2 35 км слаб. дождь 10/0
[]
+9.6 +8.0 90 +8 +8 1014.9 1011.7
00 15.06 СЗ 2 24 км дождь 10/10
[]
+9.3 +7.9 91 +8 +8 1015.0 1011.7
01 15.06 З 1 40 км слаб. дождь 10/0 2000 м
[]
+9.4 +8.0 91 +9 +9 1014.6 1011.3
02 15.06 Ю 2 22 км слаб. дождь 10/0
[]
+9.8 +9.1 95 +8 +8 1014.6 1011.4
03 15.06 Ю 2 16 км слаб. дождь 10/9 1500 м
[]
+10.1 +9.6 97 +8 +8 1015.0 1011.8
04 15.06 Ю 2 17 км слаб. дождь 10/0 1500 м
[]
+10.4 +9.7 95 +9 +10 1015.4 1012.1
05 15.06 ЮЗ 2 40 км в посл. час дождь 10/10 2000 м
[]
+11.3 +10.4 94 +10 +10 1015.5 1012.3
06 15.06 З 2 50 км 9/1 100 м
[]
+12.2 +10.6 90 +11 +14 1015.6 1012.4 +9.1 +17.3
07 15.06 З 4 45 км 6/0 200 м
[]
+12.8 +10.7 87 +11 +15 1016.1 1012.9
08 15.06 З 3 60 км 4/0 300 м
[]
+14.6 +11.2 80 +14 +21 1016.2 1013.0
09 15.06 З 3 50 км 1/1 300 м
[]
+15.5 +11.4 77 +15 +24 1016.1 1012.9
10 15.06 ЮЗ 4 60 км ясно +16.1 +11.1 72 +15 +24 1016.3 1013.1
11 15.06 З 4 65 км ясно +16.3 +10.8 70 +16 +24 1016.6 1013.4
12 15.06 З 4 50 км ясно +17.3 +10.9 66 +17 +25 1016.7 1013.5
13 15.06 З 4 65 км ясно +17.3 +10.8 66 +17 +24 1016.5 1013.4
14 15.06 ЮЗ 4 >70 км ясно +17.5 +10.5 63 +17 +23 1016.6 1013.5
15 15.06 З 4 50 км ясно +17.3 +10.4 64 +17 +21 1016.7 1013.5
16 15.06 З 4 65 км ясно +16.9 +10.3 65 +16 +19 1016.5 1013.4
17 15.06 З 3 >70 км ясно +16.8 +10.3 65 +17 +18 1016.4 1013.3
18 15.06 З 4 50 км ясно +15.1 +9.5 69 +14 +15 1016.4 1013.2 +12.1 +18.3
19 15.06 З 3 >70 км ясно +14.0 +9.8 76 +13 +13 1016.3 1013.1
20 15.06 ЮЗ 2 60 км ясно +12.4 +9.8 84 +11 +11 1016.0 1012.8
21 15.06 З 1 50 км ясно +9.9 +8.7 92 +9 +9 1016.0 1012.8
22 15.06 ЮЗ 2 55 км ясно +10.3 +9.1 92 +9 +9 1015.8 1012.6
23 15.06 Ю 2 50 км ясно +8.9 +8.1 95 +7 +7 1015.8 1012.6
00 16.06 Ю 2 600 м туман ясно +8.0 +6.9 93 +6 +6 1015.6 1012.3
01 16.06 Ю 2 17 км туман ясно +8.3 +7.8 97 +6 +6 1015.3 1012.0
02 16.06 Ю 3 400 м туман ?/? +7.8 +7.6 99 +5 +5 1015.2 1011.9
03 16.06 Ю 3 6000 м в посл. час туман 9/9 <50 м
[]
+9.0 +8.8 99 +6 +6 1014.9 1011.7
04 16.06 Ю 3 60 км ясно +12.2 +10.7 91 +11 +12 1014.7 1011.5
05 16.06 ЮЗ 4 60 км ясно +14.1 +10.9 81 +13 +15 1014.7 1011.5
06 16.06 ЮЗ 4 50 км ясно +17.0 +11.5 70 +17 +21 1014.4 1011.2 +6.9 +17.0
07 16.06 ЮЗ 5 65 км ясно +19.0 +11.6 62 +20 +24 1013.9 1010.8
08 16.06 Ю 6 60 км ясно +20.8 +11.0 53 +23 +27 комфорт 1013.5 1010.4
09 16.06 ЮЗ 4 50 км ясно +21.6 +10.4 49 +23 +31 комфорт 1013.2 1010.1
10 16.06 ЮЗ 5 60 км ясно +22.6 +10.5 46 +24 +31 комфорт 1012.9 1009.8
11 16.06 З 6 50 км ясно +18.9 +12.0 64 +19 +24 1013.0 1009.9
12 16.06 З 5 50 км ясно +19.1 +12.1 64 +20 +26 1013.1 1009.9
13 16.06 З 4 >70 км ясно +20.9 +12.2 57 +23 +30 комфорт 1012.6 1009.5
14 16.06 ЮЗ 5 >70 км ясно +21.6 +11.5 53 +24 +28 комфорт 1012.2 1009.1

 

Местоположение метеостанции Круунупюу (Финляндия): широта 63.72 долгота 23.14 высота над уровнем моря 26 м.

В архиве по умолчанию представлена погода в Круунупюу за последнюю неделю. Архивные данные за месяц целиком и за предыдущие месяцы, начиная с января 2011 года, Вы можете получить, выбрав интересующий диапазон дат из раскрывающегося списка и нажав кнопку "Ввод!".


*Определитесь, кто Вы:
робот инопланетянин человек

Внимание! Время в таблицах - всемирное. Для получения местного времени необходимо прибавить поправку, которая равна 1 ч.

Смотрите также архив погоды в соседних городах и на ближайших метеорологических станциях:

Погода в Кокколе (Финляндия) (13 км)
Погода на Танкаре (Финляндия) (30 км)
Погода на Острове Каллан (Финляндия) (31 км)
Погода в Лаитале (Финляндия) (51 км)
Погода в Каухаве (Финляндия) (65 км)
Погода на Острове Улкокалла (Финляндия) (70 км)
Погода в Пуроле (Финляндия) (71 км)
Погода в Юливиеске (Финляндия) (86 км)
Погода в Алаярви Моксы (Финляндия) (90 км)
Погода в Йлистаро Пелма (Финляндия) (93 км)

Пояснения к столбцам:

Ветер - указаны скорость ветра в м/с - средняя за 10 мин, порывы в срок и между сроками (в фигурных скобках) и направление, откуда дует ветер: С - северный, СВ - северо-восточный, В - восточный, ЮВ - юго-восточный, Ю - южный, ЮЗ - юго-западный, З - западный, СЗ - северо-западный.
Видимость - горизонтальная дальность видимости в метрах или километрах. При видимости от 1 до 10 км при отсутствии осадков обычно наблюдается дымка, при ухудшении видимости до 1 км и менее - туман. В сухую погоду видимость может ухудшаться дымом, пылью или мглою.
Явления - указаны атмосферные явления, наблюдавшиеся в срок или в последний час перед сроком; фигурными скобками обозначены явления, наблюдавшиеся между сроками (за 1-3 часа до срока); квадратными скобками обозначены град или гололедные отложения с указанием их диаметра в мм.
Облачность - указаны через наклонную черту общая и нижняя облачность в баллах и высота нижней границы облаков в метрах; квадратными скобками обозначены формы облаков: Ci - перистые, Cs - перисто-слоистые, Cc - перисто-кучевые, Ac - высококучевые, As - высокослоистые, Sc - слоисто-кучевые, Ns - слоисто-дождевые, Cu - кучевые, Cb - кучево-дождевые. Подробнее классификацию облаков см. в Атласе облаков (PDF).
T - Температура воздуха - температура, измеренная на высоте 2 м над землей.
Td - Температура точки росы - температура, при понижении до которой содержащийся в воздухе водяной пар достигнет насыщения.
f - Относительная влажность воздуха - влажноcть воздуха, измеренная на высоте 2 м над землей.
Te - Эффективная температура - температура, которую ощущает одетый по сезону человек в тени. Характеристика душности погоды. При расчете учитывается влияние влажности воздуха и скорости ветра на теплоощущения человека.
Tes - Эффективная температура на солнце - температура, которую ощущает человек, с поправкой на солнечный нагрев. Характеристика знойности погоды. Зависит от высоты солнца над горизонтом, облачности и скорости ветра. Ночью, в пасмурную погоду, а также при ветре 12 м/с и более поправка равна нулю.
P - Атмосферное давление - приведенное к уровню моря атмосферное давление.
Po - Атмосферное давление - измеренное на уровне метеостанции атмосферное давление.
Tmin - Минимальная температура - минимум температуры воздуха на высоте 2 м над землей.
Tmax - Максимальная температура - максимум температуры воздуха на высоте 2 м над землей.
R - Количество осадков - Количество выпавших осадков за период времени, мм. При наведении курсора мыши на число - период времени, за который выпало указанное количество осадков.
R24 - Количество осадков - Количество выпавших осадков за 24 часа, мм.
S - Снежный покров - Высота снежного покрова, см. При наведении курсора мыши на число - состояние снежного покрова и степень покрытия местности в баллах.